[[{"header":{"parameterUnit":"m.s-1","parameterCategory":1,"la1":30.2991,"la2":30.254,"lo1":-89.0895,"lo2":-89.0444,"dy":0.0017,"dx":0.0017,"nx":28,"ny":28,"refTime":"2024-04-03T21:00:00:Z","depth":0,"parameterNumber":2,"parameterNumberName":"U-component_of_WINDS"},"data":[0,0,0,0,0,0,0,0,0,0,0,0,0,0,0,0,0,0,0,0,0,0,0,0,0,0,0,0,0,0,0,0,0,0,0,0,0,0,0,0,0,0,0,0,0,0,0,0,0,0,0,0,0,0,0,0,0,0,5.3045,5.3046,0,5.3097,5.3098,5.3098,5.3101,5.3101,5.31,5.3099,5.315,5.3152,5.3154,0,0,0,0,0,0,0,0,0,0,0,0,0,5.2948,5.295,5.3045,5.3046,5.3046,5.3097,5.3098,5.3098,5.3101,5.3101,5.31,5.3099,5.3149,5.3152,5.3154,0,0,0,0,0,0,0,0,0,0,0,0,0,5.2994,5.295,5.3045,5.3054,5.3055,5.3097,5.3098,5.3098,5.3101,5.3101,5.31,5.3099,5.3149,5.3151,5.3154,5.3189,0,0,5.3163,5.3164,0,0,0,0,0,0,0,0,5.2991,5.2997,5.3052,5.3054,5.3055,5.3092,5.3082,5.3129,5.3102,5.3084,5.3099,5.3098,5.3131,5.3135,5.3147,5.3192,5.3194,5.3163,5.3165,5.3166,5.3167,0,0,0,0,0,0,0,5.2988,5.2995,5.3066,5.3053,5.3055,5.3055,5.3061,5.3091,5.3112,5.3085,5.3086,5.3092,5.3132,5.3144,5.3148,5.3195,5.3163,5.3166,5.3167,5.3168,5.3273,5.3274,0,0,0,0,0,0,5.2983,5.2993,5.3064,5.3067,5.302,5.3058,5.3064,5.3081,5.3111,5.3115,5.3093,5.3092,5.314,5.3145,5.315,5.3194,5.3166,5.3169,5.317,5.3272,5.3273,5.3274,0,0,0,0,0,0,5.2981,5.299,5.3062,5.303,5.3039,5.306,5.3079,5.3082,5.3095,5.3117,5.3121,5.3101,5.3139,5.3146,5.318,5.3196,5.317,5.3173,5.3271,5.3272,5.3274,5.3282,0,0,0,0,0,0,5.2979,5.2989,5.3002,5.303,5.3041,5.3091,5.308,5.3084,5.31,5.3099,5.3126,5.313,5.3139,5.3176,5.3183,5.3199,5.3175,5.3269,5.3271,5.3273,5.3281,5.3284,5.3287,0,0,0,0,0,5.2975,5.3002,5.3003,5.3012,5.3058,5.3092,5.3098,5.3109,5.3101,5.3115,5.313,5.3129,5.3193,5.3179,5.3187,5.3205,5.3268,5.3271,5.3273,5.3279,5.3283,5.3287,0,0,0,0,0,0,5.2974,5.3006,5.3007,5.3044,5.3066,5.3093,5.311,5.3113,5.3136,5.3134,5.3146,5.3153,5.3187,5.3199,5.3183,5.3242,5.323,5.3234,5.3232,5.3236,5.3239,5.3235,5.3177,0,0,0,0,0,5.2978,5.3003,5.303,5.3059,5.307,5.3089,5.3104,5.3111,5.3133,5.3142,5.3159,5.318,5.3205,5.3221,5.3246,5.3283,5.3289,5.3299,5.3302,5.3305,5.3308,5.333,5.3335,5.3282,5.3282,5.3282,0,0,5.2986,5.3007,5.3022,5.306,5.3077,5.3103,5.3096,5.3123,5.3142,5.3145,5.3179,5.3193,5.3217,5.3254,5.3271,5.3265,5.3324,5.3308,5.3309,5.3311,5.3333,5.3338,5.3342,5.3284,5.3284,5.3283,0,0,5.3015,5.3033,5.3061,5.3079,5.3106,5.3119,5.3125,5.3153,5.3162,5.3197,5.32,5.3223,5.3266,5.3284,5.3299,5.3337,5.3338,5.3345,5.336,5.3382,5.3386,5.339,5.3404,5.3409,5.3348,5.3348,5.3348,0,5.3022,5.3061,5.3074,5.3102,5.3119,5.3125,5.3153,5.317,5.3203,5.3215,5.3209,5.3264,5.3281,5.3323,5.3332,5.3344,5.3352,5.3341,5.3385,5.3388,5.3392,5.3406,5.3411,5.3349,5.3349,5.3349,5.3349,0,5.3069,5.3097,5.3116,5.3149,5.3169,5.3196,5.3214,5.3231,5.3237,5.325,5.3286,5.3307,5.3337,5.3347,5.3352,5.339,5.3386,5.3382,5.337,5.3398,5.3411,5.3416,5.335,5.335,5.3349,5.3349,0,0,5.3096,5.3139,5.3146,5.3162,5.3194,5.3215,5.3244,5.3274,5.3289,5.3313,5.3337,5.3375,5.3372,5.3389,5.3397,5.3415,5.3446,5.341,5.341,5.3416,5.3489,5.3492,5.3498,5.3447,5.3448,5.3449,5.3487,0,5.3129,5.3181,5.3194,5.3238,5.3265,5.3272,5.3297,5.3319,5.3333,5.3357,5.3372,5.3398,5.3393,5.3403,5.3422,5.3438,5.3461,5.3436,5.347,5.3471,5.3463,5.3504,5.3507,5.3542,5.3493,5.3493,5.3494,0,5.3173,5.3199,5.3246,5.3277,5.3288,5.331,5.334,5.3363,5.3389,5.3398,5.3418,5.3424,5.3455,5.3443,5.3485,5.3468,5.3483,5.3493,5.3495,5.3498,5.3484,5.3509,5.3553,5.3559,5.3502,5.3502,5.3501,0,5.3189,5.3236,5.3271,5.3284,5.332,5.3336,5.3352,5.3377,5.3395,5.342,5.3432,5.3461,5.3477,5.3499,5.3513,5.3503,5.3555,5.3544,5.3563,5.3563,5.3573,5.3572,5.362,5.3583,5.3583,5.3583,5.3583,0,5.3224,5.3252,5.3279,5.33,5.3333,5.3348,5.338,5.3396,5.3419,5.3443,5.3451,5.3474,5.3491,5.3517,5.3528,5.3562,5.3569,5.3577,5.358,5.3576,5.3575,5.3585,5.3583,5.3584,5.3584,5.3584,5.3583,0,5.3247,5.3265,5.3304,5.3336,5.3344,5.3367,5.3394,5.3415,5.343,5.3461,5.3469,5.3492,5.3523,5.354,5.3577,5.3585,5.3623,5.3625,5.3615,5.3616,5.3634,5.3632,5.3691,5.37,5.3657,5.3657,5.3657,0,5.3267,5.329,5.3325,5.3342,5.3359,5.3387,5.3406,5.3422,5.3442,5.3474,5.3491,5.3523,5.3549,5.3597,5.3617,5.3646,5.3648,5.3667,5.3653,5.3649,5.3649,5.3647,5.365,5.3669,5.3669,5.367,5.367,0,5.3302,5.3311,5.3338,5.337,5.3393,5.3418,5.3442,5.3456,5.3477,5.3499,5.3531,5.3551,5.3591,5.3622,5.3653,5.3669,5.3673,5.3675,5.3681,5.3677,5.3671,5.3675,5.3621,5.3673,5.3673,5.3672,5.3672,5.3672,5.3325,5.3346,5.3374,5.3405,5.3426,5.345,5.3471,5.349,5.3517,5.3551,5.356,5.3594,5.3621,5.3663,5.368,5.3707,5.3704,5.3712,5.3714,5.3716,5.3717,5.3667,5.3713,5.3713,5.3713,5.3713,5.3713,0,5.3361,5.338,5.3408,5.3444,5.3468,5.3471,5.35,5.352,5.355,5.3575,5.3601,5.3638,5.3669,5.3692,5.3724,5.3741,5.3743,5.3748,5.3747,5.3751,5.3718,5.371,5.3746,5.3746,5.3746,5.3746,5.3746,5.3746,5.3382,5.3418,5.3431,5.3478,5.3497,5.3531,5.3547,5.3568,5.3589,5.3631,5.3657,5.3672,5.3697,5.3731,5.3759,5.3765,5.3776,5.3781,5.3787,5.3756,5.3753,5.3749,5.3742,5.3783,5.3783,5.3818,5.3818,5.3818]},{"header":{"parameterUnit":"m.s-1","parameterCategory":1,"la1":30.2991,"la2":30.254,"lo1":-89.0895,"lo2":-89.0444,"dy":0.0017,"dx":0.0017,"nx":28,"ny":28,"refTime":"2024-04-03T21:00:00:Z","depth":0,"parameterNumber":3,"parameterNumberName":"V-component_of_WINDS"},"data":[0,0,0,0,0,0,0,0,0,0,0,0,0,0,0,0,0,0,0,0,0,0,0,0,0,0,0,0,0,0,0,0,0,0,0,0,0,0,0,0,0,0,0,0,0,0,0,0,0,0,0,0,0,0,0,0,0,0,-1.9709,-1.971,0,-1.9748,-1.9748,-1.9748,-1.9794,-1.9794,-1.9795,-1.9796,-1.9832,-1.9833,-1.9833,0,0,0,0,0,0,0,0,0,0,0,0,0,-1.9674,-1.9675,-1.9709,-1.971,-1.971,-1.9747,-1.9748,-1.9749,-1.9793,-1.9794,-1.9795,-1.9796,-1.9832,-1.9833,-1.9833,0,0,0,0,0,0,0,0,0,0,0,0,0,-1.9699,-1.9675,-1.9709,-1.9737,-1.974,-1.9747,-1.9748,-1.9749,-1.9793,-1.9794,-1.9795,-1.9796,-1.9832,-1.9833,-1.9833,-1.9815,0,0,-1.9835,-1.9835,0,0,0,0,0,0,0,0,-1.9697,-1.97,-1.9732,-1.9735,-1.9738,-1.9767,-1.9749,-1.9771,-1.9793,-1.9773,-1.9796,-1.9797,-1.981,-1.9812,-1.9817,-1.9817,-1.9819,-1.9835,-1.9835,-1.9835,-1.9835,0,0,0,0,0,0,0,-1.9696,-1.9699,-1.9724,-1.9733,-1.9737,-1.9748,-1.9752,-1.9754,-1.9785,-1.9775,-1.9778,-1.9782,-1.9811,-1.9816,-1.9818,-1.9819,-1.9835,-1.9835,-1.9835,-1.9836,-1.9809,-1.9808,0,0,0,0,0,0,-1.969,-1.9697,-1.9723,-1.9725,-1.972,-1.9747,-1.9753,-1.9757,-1.9785,-1.979,-1.9781,-1.9784,-1.9815,-1.9817,-1.9819,-1.9802,-1.9835,-1.9836,-1.9836,-1.981,-1.9809,-1.9808,0,0,0,0,0,0,-1.9689,-1.9692,-1.9722,-1.9712,-1.9717,-1.9747,-1.9751,-1.9757,-1.9762,-1.979,-1.9796,-1.978,-1.9816,-1.9819,-1.9817,-1.9804,-1.9836,-1.9836,-1.9811,-1.981,-1.9809,-1.9766,0,0,0,0,0,0,-1.9688,-1.9691,-1.9684,-1.9712,-1.9717,-1.9718,-1.975,-1.9757,-1.9763,-1.9767,-1.9791,-1.9796,-1.9817,-1.9816,-1.9817,-1.9805,-1.9837,-1.9813,-1.9811,-1.9809,-1.9769,-1.9763,-1.9759,0,0,0,0,0,-1.9686,-1.967,-1.9684,-1.9687,-1.971,-1.9717,-1.972,-1.9746,-1.9761,-1.9755,-1.9774,-1.9795,-1.9805,-1.9815,-1.9817,-1.9805,-1.9814,-1.9811,-1.9809,-1.9771,-1.9764,-1.9759,0,0,0,0,0,0,-1.9639,-1.9674,-1.969,-1.9682,-1.9696,-1.9725,-1.9717,-1.9737,-1.9747,-1.975,-1.9781,-1.9786,-1.9781,-1.9793,-1.9803,-1.9791,-1.9813,-1.9811,-1.9783,-1.9777,-1.9772,-1.9769,-1.9837,0,0,0,0,0,-1.9628,-1.9631,-1.9662,-1.9651,-1.9658,-1.9687,-1.9691,-1.971,-1.9726,-1.9732,-1.975,-1.9764,-1.9771,-1.9775,-1.9782,-1.9771,-1.9778,-1.9764,-1.9759,-1.9755,-1.9752,-1.9749,-1.9744,-1.9801,-1.9801,-1.9801,0,0,-1.9604,-1.9624,-1.9624,-1.9643,-1.9656,-1.9659,-1.9691,-1.9693,-1.9696,-1.9732,-1.9731,-1.9746,-1.9764,-1.9758,-1.9756,-1.9767,-1.9739,-1.9752,-1.9748,-1.9748,-1.9746,-1.9741,-1.9736,-1.9799,-1.9799,-1.98,0,0,-1.9563,-1.9578,-1.9572,-1.9586,-1.9606,-1.9626,-1.9625,-1.9651,-1.9662,-1.9663,-1.969,-1.9694,-1.9705,-1.9717,-1.9725,-1.9692,-1.9712,-1.9693,-1.9667,-1.9663,-1.9659,-1.9655,-1.9645,-1.964,-1.9691,-1.9691,-1.9691,0,-1.953,-1.9537,-1.9566,-1.9567,-1.9575,-1.961,-1.9604,-1.9616,-1.9637,-1.9642,-1.9656,-1.9672,-1.9686,-1.9684,-1.9677,-1.9681,-1.9681,-1.969,-1.9657,-1.9654,-1.9651,-1.9641,-1.9637,-1.9689,-1.9689,-1.9689,-1.969,0,-1.9497,-1.9501,-1.9494,-1.9516,-1.9523,-1.9521,-1.955,-1.9554,-1.9573,-1.9591,-1.9592,-1.9612,-1.9625,-1.9626,-1.9643,-1.9627,-1.9634,-1.9652,-1.9675,-1.9643,-1.9634,-1.963,-1.9686,-1.9686,-1.9687,-1.9688,0,0,-1.9425,-1.9465,-1.9462,-1.9474,-1.95,-1.9504,-1.9504,-1.9518,-1.9522,-1.9536,-1.9537,-1.9547,-1.9565,-1.9574,-1.9593,-1.959,-1.9565,-1.9609,-1.961,-1.9601,-1.955,-1.9537,-1.9532,-1.9579,-1.9578,-1.9578,-1.9549,0,-1.9389,-1.9391,-1.9419,-1.9414,-1.9419,-1.9453,-1.9453,-1.947,-1.9488,-1.9495,-1.9514,-1.9521,-1.9543,-1.9549,-1.9548,-1.9568,-1.9555,-1.957,-1.958,-1.958,-1.9575,-1.9527,-1.9512,-1.9484,-1.9545,-1.9545,-1.9544,0,-1.9346,-1.9361,-1.9356,-1.9386,-1.9389,-1.9388,-1.9405,-1.9411,-1.9431,-1.9445,-1.9456,-1.9479,-1.9482,-1.9504,-1.9509,-1.9519,-1.9525,-1.9535,-1.9535,-1.9537,-1.956,-1.9528,-1.9475,-1.9471,-1.9539,-1.954,-1.954,0,-1.9295,-1.9313,-1.9314,-1.9322,-1.9356,-1.9355,-1.9369,-1.9391,-1.9399,-1.9413,-1.9419,-1.9433,-1.944,-1.9451,-1.9478,-1.9491,-1.948,-1.9504,-1.9491,-1.9491,-1.9487,-1.9487,-1.9435,-1.949,-1.949,-1.949,-1.949,0,-1.9252,-1.9248,-1.9292,-1.9291,-1.9289,-1.9321,-1.9318,-1.9335,-1.9354,-1.9359,-1.9389,-1.9393,-1.9428,-1.9436,-1.9456,-1.9458,-1.9461,-1.9472,-1.9478,-1.947,-1.9468,-1.9474,-1.9476,-1.9489,-1.949,-1.949,-1.949,0,-1.9194,-1.9223,-1.9226,-1.9259,-1.9267,-1.9264,-1.9292,-1.9294,-1.9315,-1.932,-1.9323,-1.9355,-1.9366,-1.9394,-1.9412,-1.9426,-1.9423,-1.9433,-1.9416,-1.9419,-1.9406,-1.9407,-1.9356,-1.9352,-1.9409,-1.9408,-1.9408,0,-1.9165,-1.9163,-1.9197,-1.9203,-1.9216,-1.9224,-1.9233,-1.9266,-1.9273,-1.9298,-1.9297,-1.9311,-1.9324,-1.934,-1.9365,-1.9379,-1.939,-1.9371,-1.9392,-1.9385,-1.9391,-1.9391,-1.9391,-1.9366,-1.9366,-1.9365,-1.9364,0,-1.911,-1.9125,-1.9137,-1.9154,-1.9164,-1.9179,-1.9195,-1.9198,-1.9235,-1.9242,-1.9255,-1.9265,-1.9284,-1.9298,-1.9317,-1.9332,-1.9354,-1.9358,-1.9356,-1.9348,-1.9338,-1.9344,-1.9404,-1.9359,-1.9359,-1.936,-1.936,-1.936,-1.9066,-1.9067,-1.9092,-1.9104,-1.9121,-1.9136,-1.914,-1.9162,-1.9173,-1.9193,-1.9211,-1.9222,-1.9245,-1.9273,-1.9286,-1.9296,-1.9307,-1.9304,-1.9303,-1.9302,-1.9299,-1.9337,-1.9299,-1.9299,-1.9299,-1.93,-1.93,0,-1.9014,-1.9032,-1.9043,-1.9066,-1.9077,-1.9099,-1.9119,-1.9126,-1.9136,-1.9155,-1.9168,-1.9183,-1.9198,-1.9225,-1.9241,-1.9244,-1.9255,-1.9247,-1.9247,-1.9251,-1.9287,-1.9287,-1.9238,-1.9238,-1.9238,-1.9238,-1.9238,-1.9238,-1.8987,-1.8991,-1.9009,-1.9021,-1.904,-1.9051,-1.9061,-1.9076,-1.9092,-1.9108,-1.9121,-1.9139,-1.9162,-1.9181,-1.9196,-1.9203,-1.9208,-1.9197,-1.9208,-1.9242,-1.9248,-1.9253,-1.9254,-1.9198,-1.9198,-1.9171,-1.9171,-1.9171]}]]